2020-014B (45250 NORAD) Tracking and Keplerian Element Data

This shows tracking and keplerian element data for the satellite.

Feedback or suggestion? Click here.




ElementValue
Catalog45250
Name2020-014B
Epoch Orbit658
Epoch Day93.82836339
Epoch Year2020
RAAN168.6843
Inclination35.0072
Eccentricity0.0005958
Argument of Perigee317.8542
Mean Anonmoly42.1716
Mean Motion15.28916022
Decay Rate1.537E-05
L11 45250U 20014B 20093.82836339 .00001537 00000-0 54682-4 0 9994
L22 45250 35.0072 168.6843 0005958 317.8542 42.1716 15.28916022 6584

Live tracking and technical data element details for 2020-014B (NORAD 45250). 2020-014B can be tracked NOW for your location showing map with azimuth and elevation plus other details from your city location.

Track the satellite on the map from your city or location and see movement details for azimuth, elevation, latitude, longitude, range, height, and movement on the map or in text.







IsCatalogInMostPopularTable: catalog: 45250, numindb: 10
Update: records affected: 1



GetName: 45250 2020-014B

Hit Count: updated at: Mon, 06 Apr 2020 11:26:47 GMT